Weather History for PHNY - September, 2014

Change the Weather History Date:

Friday, September 26, 2014

  Actual Average Record
Temperature  
Mean Temperature 78 °F -  
Max Temperature 84 °F 83 °F 86 °F (2003)
Min Temperature 72 °F 65 °F 60 °F (1954)
Cooling Degree Days 13    
Growing Degree Days 28 (Base 50)    
Moisture  
Dew Point 72 °F    
Average Humidity 88    
Maximum Humidity 100    
Minimum Humidity 66    
Precipitation  
Precipitation 0.01 in - - ()
Sea Level Pressure  
Sea Level Pressure 30.02 in    
Wind  
Wind Speed 8 mph (North)    
Max Wind Speed 13 mph    
Max Gust Speed -    
Visibility 10 miles    
Events Rain    
Averages and records for this station are not official NWS values.
T = Trace of Precipitation, MM = Missing Value Source: NWS Daily Summary

Daily Weather History Graph

Daily Weather History Graph

Search for Another Location

Airport or City:

Trip Planner

Search our weather history database for the weather conditions in past years. The results will help you decide how hot, cold, wet, or windy it might be!

Date:

Astronomy

Sep. 26, 2014 Rise Set
Actual Time 6:17 AM HST 6:20 PM HST
Civil Twilight 5:55 AM HST 6:42 PM HST
Nautical Twilight 5:29 AM HST 7:07 PM HST
Astronomical Twilight 5:04 AM HST 7:33 PM HST
Moon 8:24 AM HST (9/26) 8:09 PM HST (9/26)
Length of Visible Light 12h 46m
Length of Day
12h 02m
Waxing Crescent, 7% of the Moon is Illuminated
Sep 26
Waxing Crescent
Oct 1
First Quarter
Oct 8
Full
Oct 15
Last Quarter
Oct 23
New

Hourly Weather History & Observations

Time (HST) Temp. Heat Index Dew Point Humidity Pressure Visibility Wind Dir Wind Speed Gust Speed Precip Events Conditions
12:56 AM 73.9 °F - 72.9 °F 96% 30.06 in 10.0 mi NNE 9.2 mph - N/A   Mostly Cloudy
1:56 AM 73.9 °F - 72.9 °F 96% 30.04 in 10.0 mi NE 12.7 mph - N/A   Scattered Clouds
2:56 AM 72.9 °F - 72.9 °F 100% 29.96 in 10.0 mi NE 8.1 mph - N/A   Scattered Clouds
3:56 AM 72.9 °F - 72.9 °F 100% 29.96 in 10.0 mi NE 12.7 mph - N/A   Clear
4:56 AM 72.0 °F - 72.0 °F 100% 29.97 in 10.0 mi NE 5.8 mph - N/A   Partly Cloudy
5:56 AM 72.9 °F - 72.9 °F 100% 29.97 in 10.0 mi NE 11.5 mph - N/A   Clear
6:56 AM 73.9 °F - 72.0 °F 93% 29.98 in 10.0 mi NNE 10.4 mph - N/A   Clear
7:56 AM - - - N/A% - - North - - N/A   Unknown
8:56 AM - - - N/A% - - North - - N/A   Unknown
9:10 AM 80.6 °F 83.9 °F 69.8 °F 70% 30.03 in 10.0 mi NE 5.8 mph - N/A   Mostly Cloudy
9:56 AM - - - N/A% - - North - - N/A   Unknown
10:30 AM 84.2 °F 90.9 °F 73.4 °F 70% 30.03 in 10.0 mi WSW 4.6 mph - N/A   Mostly Cloudy
10:55 AM 82.4 °F 86.3 °F 69.8 °F 66% 30.03 in 10.0 mi SW 5.8 mph - N/A   Mostly Cloudy
10:56 AM - - - N/A% - - North - - N/A   Unknown
11:55 AM 80.6 °F 83.9 °F 69.8 °F 70% 30.03 in 10.0 mi WSW 4.6 mph - N/A   Mostly Cloudy
11:56 AM - - - N/A% - - North - - N/A   Unknown
12:50 PM 82.4 °F 86.3 °F 69.8 °F 66% 30.02 in 10.0 mi SW 4.6 mph - N/A   Mostly Cloudy
12:56 PM - - - N/A% 30.05 in - North - - N/A   Unknown
1:33 PM 80.6 °F 84.6 °F 71.6 °F 74% 30.04 in 10.0 mi NW 5.8 mph - N/A   Overcast
1:56 PM 77.0 °F - 74.8 °F 93% 29.96 in 10.0 mi WNW 8.1 mph - 0.01 in Rain Light Rain
2:37 PM 80.6 °F 85.4 °F 73.4 °F 79% 30.02 in 10.0 mi NW 6.9 mph - 0.00 in   Overcast
2:56 PM 81.0 °F 85.2 °F 72.0 °F 74% 29.95 in 10.0 mi North 8.1 mph - 0.00 in   Overcast
3:56 PM 79.9 °F - 72.9 °F 79% 29.94 in 10.0 mi NNE 12.7 mph - N/A   Mostly Cloudy
4:56 PM 75.2 °F - 73.4 °F 94% 30.02 in 10.0 mi ENE 9.2 mph - N/A Rain Light Rain
5:04 PM 77.0 °F - 71.6 °F 83% 30.02 in 10.0 mi East 5.8 mph - 0.00 in   Mostly Cloudy
5:56 PM 77.9 °F - 68.9 °F 74% 29.97 in 10.0 mi Calm Calm - 0.00 in   Clear
6:56 PM 74.8 °F - 72.0 °F 91% 29.99 in 10.0 mi Calm Calm - N/A   Clear
7:30 PM 75.2 °F - 73.4 °F 94% 30.06 in 10.0 mi North 6.9 mph - N/A   Mostly Cloudy
7:56 PM 75.2 °F - 73.4 °F 94% 30.06 in 10.0 mi NNW 8.1 mph - N/A   Mostly Cloudy
8:07 PM 75.2 °F - 73.4 °F 94% 30.06 in 10.0 mi North 8.1 mph - N/A   Scattered Clouds
8:35 PM 73.4 °F - 73.4 °F 100% 30.06 in 10.0 mi North 5.8 mph - N/A   Mostly Cloudy
8:56 PM 73.9 °F - 73.9 °F 100% 30.06 in 10.0 mi North 5.8 mph - N/A   Scattered Clouds
9:56 PM 73.9 °F - 73.9 °F 100% 30.07 in 10.0 mi Calm Calm - N/A   Clear
10:56 PM 73.9 °F - 72.9 °F 96% 30.06 in 10.0 mi North 5.8 mph - N/A   Clear
11:56 PM 73.9 °F - 73.9 °F 100% 30.04 in 10.0 mi NNE 11.5 mph - N/A   Clear